North Clarendon, VT

2:07 AM EST on February 14, 2016 (GMT -0500)
Rutland State

Weather History for KRUT - April, 2013

Change the Weather History Date:

Saturday, April 27, 2013

  Actual Average Record
Temperature  
Mean Temperature 46 °F -  
Max Temperature 61 °F - 89 °F (1990)
Min Temperature 30 °F - 23 °F (1972)
Degree Days  
Heating Degree Days 19    
Month to date heating degree days 613  
Since 1 July heating degree days 6536  
Cooling Degree Days 0    
Month to date cooling degree days 0  
Year to date cooling degree days 0  
Moisture  
Dew Point 27 °F    
Average Humidity 58    
Maximum Humidity 92    
Minimum Humidity 24    
Precipitation  
Precipitation 0.00 in - 0.74 in (1953)
Month to date precipitation 1.89  
Year to date precipitation 4.51  
Sea Level Pressure  
Sea Level Pressure 30.37 in    
Wind  
Wind Speed 7 mph (East)    
Max Wind Speed 13 mph    
Max Gust Speed 16 mph    
Visibility 10 miles    
Events      
T = Trace of Precipitation, MM = Missing Value Source: NWS Daily Summary

Daily Weather History Graph

Daily Weather History Graph

Search for Another Location

Airport or City:

Trip Planner

Search our weather history database for the weather conditions in past years. The results will help you decide how hot, cold, wet, or windy it might be!

Date:

Astronomy

Apr. 27, 2013 Rise Set
Actual Time 5:49 AM EDT 7:49 PM EDT
Civil Twilight 5:19 AM EDT 8:20 PM EDT
Nautical Twilight 4:41 AM EDT 8:58 PM EDT
Astronomical Twilight 3:59 AM EDT 9:40 PM EDT
Moon 10:19 PM EDT (4/27) 7:03 AM EDT (4/27)
Length of Visible Light 15h 01m
Length of Day
13h 59m
Waning Gibbous, 95% of the Moon is Illuminated
Apr 27
Waning Gibbous
May 2
Last Quarter
May 9
New
May 18
First Quarter
May 25
Full

Hourly Weather History & Observations

Time (EDT) Temp. Windchill Dew Point Humidity Pressure Visibility Wind Dir Wind Speed Gust Speed Precip Events Conditions
12:15 AM 37.4 °F 34.9 °F 28.4 °F 70% 30.43 in 10.0 mi ESE 3.5 mph - N/A   Partly Cloudy
12:55 AM 35.6 °F 31.7 °F 30.2 °F 81% 30.44 in 10.0 mi SE 4.6 mph - N/A   Partly Cloudy
1:15 AM 35.6 °F 31.7 °F 28.4 °F 75% 30.44 in 10.0 mi SSE 4.6 mph - N/A   Clear
1:35 AM 35.6 °F 30.7 °F 30.2 °F 81% 30.44 in 10.0 mi SE 5.8 mph - N/A   Clear
1:55 AM 35.6 °F 29.9 °F 28.4 °F 75% 30.44 in 10.0 mi SE 6.9 mph - N/A   Clear
2:15 AM 35.6 °F 30.7 °F 30.2 °F 81% 30.43 in 10.0 mi ESE 5.8 mph - N/A   Clear
2:35 AM 33.8 °F 28.6 °F 28.4 °F 81% 30.43 in 10.0 mi SE 5.8 mph - N/A   Clear
3:15 AM 33.8 °F 27.7 °F 28.4 °F 81% 30.42 in 10.0 mi SE 6.9 mph - N/A   Clear
3:35 AM 33.8 °F 28.6 °F 28.4 °F 81% 30.42 in 10.0 mi ESE 5.8 mph - N/A   Clear
3:55 AM 33.8 °F 27.0 °F 28.4 °F 81% 30.42 in 10.0 mi ESE 8.1 mph - N/A   Clear
4:15 AM 33.8 °F 28.6 °F 28.4 °F 81% 30.42 in 10.0 mi SSE 5.8 mph - N/A   Clear
4:35 AM 32.0 °F 27.5 °F 28.4 °F 87% 30.42 in 10.0 mi SE 4.6 mph - N/A   Clear
4:55 AM 32.0 °F 25.6 °F 28.4 °F 87% 30.42 in 10.0 mi SE 6.9 mph - N/A   Clear
5:55 AM 30.2 °F 21.9 °F 28.4 °F 93% 30.42 in 10.0 mi SE 9.2 mph - N/A   Clear
6:15 AM 32.0 °F 25.6 °F 28.4 °F 87% 30.43 in 10.0 mi SE 6.9 mph - N/A   Clear
6:35 AM 30.2 °F 25.4 °F 28.4 °F 93% 30.43 in 10.0 mi SE 4.6 mph - N/A   Clear
6:55 AM 33.8 °F 26.4 °F 28.4 °F 81% 30.43 in 10.0 mi ESE 9.2 mph - N/A   Clear
7:15 AM 35.6 °F 29.9 °F 30.2 °F 81% 30.43 in 10.0 mi SE 6.9 mph - N/A   Clear
7:35 AM 35.6 °F 32.8 °F 30.2 °F 81% 30.43 in 10.0 mi SSE 3.5 mph - N/A   Clear
8:15 AM 39.2 °F - 30.2 °F 70% 30.43 in 10.0 mi Calm Calm - N/A   Clear
8:35 AM 41.0 °F - 30.2 °F 65% 30.43 in 10.0 mi Calm Calm - N/A   Clear
8:55 AM 42.8 °F - 32.0 °F 66% 30.43 in 10.0 mi Calm Calm - N/A   Clear
9:15 AM 44.6 °F - 33.8 °F 66% 30.43 in 10.0 mi Calm Calm - N/A   Clear
9:35 AM 46.4 °F 44.3 °F 33.8 °F 62% 30.43 in 10.0 mi NNW 4.6 mph - N/A   Clear
9:55 AM 48.2 °F - 30.2 °F 50% 30.43 in 10.0 mi Calm Calm - N/A   Clear
10:35 AM 51.8 °F - 26.6 °F 38% 30.42 in 10.0 mi NNE 5.8 mph - N/A   Clear
10:55 AM 51.8 °F - 26.6 °F 38% 30.42 in 10.0 mi NNE 5.8 mph - N/A   Clear
11:15 AM 53.6 °F - 26.6 °F 35% 30.41 in 10.0 mi NE 3.5 mph - N/A   Clear
11:35 AM 53.6 °F - 26.6 °F 35% 30.41 in 10.0 mi North 6.9 mph - N/A   Clear
11:55 AM 55.4 °F - 24.8 °F 31% 30.40 in 10.0 mi North 8.1 mph - N/A   Clear
12:15 PM 55.4 °F - 24.8 °F 31% 30.39 in 9.0 mi NNW 5.8 mph - N/A   Clear
12:35 PM 55.4 °F - 24.8 °F 31% 30.38 in 7.0 mi North 4.6 mph - N/A   Clear
1:15 PM 57.2 °F - 23.0 °F 27% 30.36 in 10.0 mi NNE 6.9 mph - N/A   Clear
1:35 PM 57.2 °F - 23.0 °F 27% 30.36 in 3.0 mi East 3.5 mph - N/A   Clear
1:55 PM 57.2 °F - 24.8 °F 29% 30.35 in 7.0 mi NE 8.1 mph - N/A   Clear
2:15 PM 59.0 °F - 21.2 °F 23% 30.35 in 10.0 mi NW 8.1 mph - N/A   Scattered Clouds
2:35 PM 60.8 °F - 21.2 °F 22% 30.34 in 10.0 mi WNW 5.8 mph 16.1 mph N/A   Mostly Cloudy
2:55 PM 59.0 °F - 23.0 °F 25% 30.33 in 10.0 mi NNW 6.9 mph - N/A   Partly Cloudy
3:15 PM 59.0 °F - 21.2 °F 23% 30.33 in 10.0 mi North 9.2 mph - N/A   Mostly Cloudy
3:55 PM 57.2 °F - 23.0 °F 27% 30.32 in 10.0 mi North 10.4 mph - N/A   Overcast
4:15 PM 57.2 °F - 21.2 °F 25% 30.31 in 10.0 mi NNW 6.9 mph - N/A   Overcast
4:35 PM 57.2 °F - 21.2 °F 25% 30.31 in 10.0 mi North 9.2 mph - N/A   Overcast
4:55 PM 57.2 °F - 21.2 °F 25% 30.31 in 10.0 mi NNE 9.2 mph - N/A   Overcast
5:15 PM 57.2 °F - 23.0 °F 27% 30.31 in 10.0 mi North 6.9 mph - N/A   Overcast
5:35 PM 57.2 °F - 21.2 °F 25% 30.30 in 10.0 mi NNE 5.8 mph - N/A   Overcast
5:55 PM 57.2 °F - 21.2 °F 25% 30.30 in 10.0 mi Calm Calm - N/A   Overcast
6:35 PM 57.2 °F - 24.8 °F 29% 30.30 in 10.0 mi NE 4.6 mph - N/A   Mostly Cloudy
6:55 PM 57.2 °F - 24.8 °F 29% 30.29 in 10.0 mi North 5.8 mph - N/A   Mostly Cloudy
7:15 PM 57.2 °F - 23.0 °F 27% 30.29 in 10.0 mi Calm Calm - N/A   Scattered Clouds
7:35 PM 55.4 °F - 23.0 °F 29% 30.29 in 10.0 mi North 3.5 mph - N/A   Partly Cloudy
8:15 PM 51.8 °F - 28.4 °F 41% 30.29 in 10.0 mi SE 5.8 mph - N/A   Clear
8:35 PM 50.0 °F - 26.6 °F 40% 30.30 in 10.0 mi ESE 5.8 mph - N/A   Clear
8:55 PM 48.2 °F - 28.4 °F 46% 30.30 in 10.0 mi ESE 5.8 mph - N/A   Clear
9:15 PM 46.4 °F 42.9 °F 28.4 °F 50% 30.30 in 10.0 mi SE 6.9 mph - N/A   Clear
9:35 PM 46.4 °F 41.5 °F 28.4 °F 50% 30.31 in 10.0 mi SE 10.4 mph - N/A   Clear
9:55 PM 46.4 °F 40.7 °F 28.4 °F 50% 30.31 in 10.0 mi SE 12.7 mph - N/A   Clear
10:35 PM 44.6 °F 38.4 °F 26.6 °F 49% 30.31 in 10.0 mi ESE 12.7 mph - N/A   Clear
10:55 PM 44.6 °F 39.2 °F 26.6 °F 49% 30.31 in 10.0 mi SE 10.4 mph - N/A   Clear
11:15 PM 42.8 °F 37.5 °F 26.6 °F 53% 30.31 in 10.0 mi SE 9.2 mph - N/A   Clear
11:35 PM 42.8 °F 36.2 °F 26.6 °F 53% 30.31 in 10.0 mi ESE 12.7 mph - N/A   Clear
11:55 PM 42.8 °F 37.0 °F 26.6 °F 53% 30.31 in 10.0 mi SE 10.4 mph - N/A   Clear